Location: Praha
(50.0830°N, 14.4670°E)
Time: 17:47:50
(UTC+02:00)

ISS - Pass Details

Date: 19 May 2020
Orbit: 417 x 420 km, 51.6° (Epoch: 26 May)

Event Time Altitude Azimuth Distance (km) Brightness Sun altitude
Rises 23:52:36 0° 276° (W) 2,366 0.4 -18.4°
Reaches altitude 10° 23:54:43 10° 280° (W) 1,503 -0.6 -18.5°
Maximum altitude 23:58:04 65° 3° (N) 466 -3.4 -18.6°
Enters shadow 00:00:44 15° 84° (E) 1,228 -1.5 -18.7°
